Regional Weather Roundup
Issued by NWS

Home | Current Version | Previous Version | Graphics & Text | Print | Product List | Glossary On
Versions: 1 2 3 4 5 6 7 8 9 10 11 12 13 14 15 16 17 18 19 20 21 22 23 24 25 26 27 28 29 30 31 32 33 34 35 36 37 38 39 40 41 42 43 44 45 46 47 48 49 50
000
ASUS43 KDMX 311908
RWRIA

WEATHER ROUNDUP FOR IOWA
NATIONAL WEATHER SERVICE DES MOINES IA
200 PM CDT WED AUG 31 2016

NOTE: "FAIR" INDICATES FEW OR NO CLOUDS BELOW 12,000 FEET WITH NO
SIGNIFICANT WEATHER AND/OR OBSTRUCTIONS TO VISIBILITY.

* - THESE STATIONS ARE NOT NWS STATIONS...THUS NOT UNDER NWS
QUALITY CONTROL.  THEY ALSO DO NOT REPORT WEATHER SUCH
AS PRECIPITATION OR FOG.

IAZ001>003-012>014-020>022-031>034-043>046-312000-
   NORTHWEST IOWA

CITY           SKY/WX    TMP DP  RH WIND       PRES   REMARKS
CARROLL *      SUNNY     79  59  50 NE8       30.19S HX  80
CHEROKEE *     SUNNY     77  58  52 E6        30.20F
DENISON *      SUNNY     77  57  50 NE8       30.18S
LE MARS *      SUNNY     79  57  47 NE9       30.21F HX  80
ORANGE CITY *  SUNNY     79  57  47 NE3       30.22F HX  80
SHELDON *      SUNNY     79  59  50 VRB5      30.21S HX  80
SIOUX CITY     SUNNY     80  59  48 VRB3      30.20F HX  81
SPENCER        SUNNY     78  57  48 NE8       30.21F
STORM LAKE *   SUNNY     75  59  57 NE8       30.22S
$$

IAZ055>058-069>071-079>083-090>094-312000-
   SOUTHWEST IOWA

CITY           SKY/WX    TMP DP  RH WIND       PRES   REMARKS
ATLANTIC *     SUNNY     77  59  53 NE10      30.17F
AUDUBON *      SUNNY     79  61  53 NE7       30.20F HX  80
CLARINDA *       N/A     81  61  50 MISG        N/A  HX  81
COUNCIL BLFS * SUNNY     79  61  53 N9        30.18F HX  80
CRESTON *      SUNNY     77  61  57 N9G15     30.18S
HARLAN  *      SUNNY     77  61  57 NE9       30.22F
LAMONI         MOSUNNY   77  61  57 NE9       30.15S
RED OAK *      SUNNY     81  63  54 N8        30.17F HX  82
SHENANDOAH *   MOSUNNY   79  63  57 NE6       30.17S HX  80
$$

IAZ047>049-059>061-072>074-084-312000-
   CENTRAL IOWA

CITY           SKY/WX    TMP DP  RH WIND       PRES   REMARKS
AMES           SUNNY     79  60  52 N12       30.17R HX  80
ANKENY *         N/A    N/A N/A N/A MISG        N/A
BOONE *        SUNNY     79  57  47 N10       30.17S HX  80
CHARITON *       N/A     77  63  61 N13G18    30.14F
DES MOINES     MOSUNNY   82  57  42 N13       30.15S HX  82
GRINNELL*      SUNNY     79  56  46 N9        30.16S
KNOXVILLE *    SUNNY     77  59  53 N9        30.14S
MARSHALLTOWN   SUNNY     77  60  55 N13       30.16S
NEWTON *       SUNNY     79  57  47 NE10G18   30.15S HX  80
PERRY *          N/A     79  59  50 NE6       30.18S HX  80
$$

IAZ004>006-015-016-023>025-035-036-312000-
   NORTH CENTRAL IOWA

CITY           SKY/WX    TMP DP  RH WIND       PRES   REMARKS
ALGONA *       SUNNY     77  55  47 NE9       30.20F
ESTHERVILLE    SUNNY     76  60  57 VRB7      30.21F
FORT DODGE *   SUNNY     79  57  47 N7        30.20S HX  80
MASON CITY     SUNNY     76  54  46 N7        30.21S
FOREST CITY *    N/A     73  54  49 N7        30.20F
WEBSTER CITY * SUNNY     77  59  53 N9        30.16F
IOWA FALLS *     N/A     77  56  48 N6        30.19S
$$

IAZ007>011-017>019-026>030-037>042-050>054-066-312000-
   NORTHEAST IOWA

CITY           SKY/WX    TMP DP  RH WIND       PRES   REMARKS
CEDAR RAPIDS   SUNNY     79  57  46 N9        30.13S HX  80
CHARLES CITY * SUNNY     75  54  46 N9        30.18F
CLINTON *      MOSUNNY   76  65  68 N8        30.11F
DECORAH *      SUNNY     75  54  46 N9        30.16S
DUBUQUE        SUNNY     75  56  51 N12       30.14S
MONTICELLO *   SUNNY     77  55  47 N13       30.13S
OELWEIN *      SUNNY     75  55  50 N8G15     30.17R
WATERLOO       SUNNY     78  54  43 N14       30.15S
$$

IAZ064-065-067-068-078-312000-
   EAST CENTRAL IOWA

CITY           SKY/WX    TMP DP  RH WIND       PRES   REMARKS
DAVENPORT      MOSUNNY   77  63  61 N9        30.11F
IOWA CITY      SUNNY     79  58  48 N9        30.13S HX  80
MT. PLEASANT * MOSUNNY   79  66  63 N10       30.10F HX  81
MUSCATINE *    MOSUNNY   79  61  53 N12       30.10F HX  80
QUAD CITIES    MOSUNNY   79  65  62 N10       30.09F HX  81
$$

IAZ062-063-075>077-085>089-095>099-312000-
   SOUTHEAST IOWA

CITY           SKY/WX    TMP DP  RH WIND       PRES   REMARKS
BURLINGTON     MOSUNNY   80  66  62 N10       30.09F HX  82
FAIRFIELD *    PTSUNNY   79  61  53 N12       30.11F HX  80
FORT MADISON * MOSUNNY   81  66  61 N7        30.10F HX  83
KEOKUK *       MOSUNNY   79  68  69 N8G16     30.08F HX  81
OSKALOOSA *      N/A     76  63  62 N10       30.14S
OTTUMWA        MOSUNNY   79  61  53 N12       30.13R HX  80
WASHINGTON *   MOSUNNY   79  63  57 N10G18    30.13S HX  80
$$

ABBREVIATIONS USED IN REMARKS
   TC - TEMPERATURES IN CELSIUS
  WCI - WIND CHILL INDEX
   HX - HEAT INDEX
  VSB - VISIBILITY
$$





USA.gov is the U.S. government's official web portal to all federal, state and local government web resources and services.